Wind_Speed
21 19 22 24 24 24 24 19 15 12 12 13 12 15 11 9 10 10 11 11 9 10 9 6 4 0 3 2 4 6 4 4 5 5 3 3 5 7 6 9 2 2 2
23 20 22 21 20 23 26 21 19 15 15 16 14 13 13 15 15 14 13 12 12 8 8 9 4 5 6 5 3 4 3 3 4 2 4 5 4 7 4 5 6 5 3
25 22 21 19 18 20 20 21 22 20 15 12 14 14 15 16 16 18 17 13 10 7 9 11 9 8 7 6 6 7 8 8 5 5 6 6 9 10 9 8 9 9 7
18 19 22 23 21 19 18 18 16 18 18 17 16 13 15 14 14 15 14 15 13 10 10 11 9 8 6 7 8 7 6 6 7 7 5 7 12 13 14 13 13 13 11
9 12 22 25 23 20 21 19 17 19 18 16 16 15 15 14 12 13 13 14 13 12 11 12 10 8 9 9 9 10 10 10 10 9 8 7 8 10 13 13 13 16 15
8 21 22 18 18 23 19 19 18 16 15 16 15 14 12 12 11 10 8 10 12 13 11 12 12 11 11 11 11 10 10 8 9 11 10 9 8 9 11 14 16 21 18
21 22 18 19 19 14 12 11 14 13 12 9 8 9 9 9 11 8 8 8 10 11 11 10 9 10 12 15 12 8 6 6 8 10 11 10 9 10 12 12 11 15 17
19 15 13 17 25 23 20 18 12 15 13 7 10 13 11 10 9 6 7 7 9 10 9 9 8 7 9 8 7 8 10 10 9 7 7 7 8 10 11 12 12 13 15
9 9 14 17 15 16 20 18 17 14 13 10 11 15 14 15 15 15 16 15 14 12 10 6 4 3 6 7 7 8 10 11 10 10 10 11 12 12 13 14 14 16 17
7 7 11 15 13 12 14 16 15 10 10 9 11 10 11 10 10 9 14 16 13 11 10 8 5 5 4 5 8 10 10 11 11 9 9 10 11 11 12 13 15 17 18
10 10 11 11 10 11 13 12 11 8 10 10 7 5 5 5 6 8 10 8 9 9 9 8 8 7 6 6 7 9 9 11 12 11 11 10 7 4 6 9 8 8 15
12 12 11 12 11 9 8 9 7 8 8 6 3 3 3 2 2 3 6 9 9 8 8 8 6 8 5 4 4 5 11 15 15 14 13 11 7 2 2 3 5 5 5
11 12 11 11 12 11 11 10 8 9 8 8 6 4 7 8 8 8 5 1 3 3 4 2 2 2 1 1 4 4 3 4 5 4 3 0 3 3 4 3 2 2 3
9 9 9 9 10 11 12 12 10 9 9 7 6 7 7 9 9 9 8 7 6 5 6 5 6 6 6 6 7 7 6 5 3 3 4 5 5 7 6 7 8 10 10
11 11 9 9 9 9 10 10 10 9 8 7 3 3 5 7 8 8 10 10 11 12 11 11 11 11 11 11 10 9 8 8 7 7 8 10 9 6 5 5 4 4 4
11 11 10 7 6 6 7 8 7 5 3 2 1 3 3 4 5 8 10 10 12 12 13 12 14 14 13 13 12 12 11 9 8 7 6 5 3 3 5 6 6 5 6
8 7 7 7 7 6 6 5 3 3 4 3 2 3 2 3 6 8 9 9 10 10 11 13 12 12 13 11 9 8 9 10 11 11 11 10 9 9 8 7 5 4 4
14 14 14 12 10 9 9 9 9 8 4 3 3 4 5 6 9 11 10 9 8 7 5 7 7 8 8 8 7 7 8 9 10 10 9 8 6 6 6 6 3 2 2
12 10 9 8 6 5 6 6 7 8 8 8 7 5 5 7 8 8 6 6 5 5 4 3 2 2 5 5 5 6 7 8 7 6 4 4 3 1 1 1 2 1 3
9 9 6 5 5 9 5 3 5 6 5 5 8 8 5 5 6 7 5 4 3 2 3 2 1 1 1 1 1 3 3 4 2 2 3 3 3 3 3 3 6 5 1
7 3 7 10 11 10 7 5 4 3 3 3 2 3 4 3 5 6 5 1 2 3 4 4 1 1 2 2 3 4 5 3 1 3 3 2 2 2 1 1 1 6 6
8 7 8 10 8 11 9 6 6 7 10 10 10 9 7 6 8 9 7 4 3 2 5 5 4 4 2 3 5 6 4 3 3 6 4 3 1 5 7 5 5 6 7
7 4 12 13 11 11 10 9 10 10 12 8 8 14 15 11 10 12 12 8 9 5 2 3 4 2 2 2 2 5 4 3 3 1 1 4 5 5 5 4 4 5 3
13 9 6 7 15 13 13 13 12 12 12 14 10 10 12 14 12 16 17 18 16 15 11 6 2 1 4 3 4 1 2 6 3 3 3 4 4 5 5 3 3 4 4
14 15 13 7 8 14 15 11 11 11 13 16 15 13 13 15 17 16 19 18 19 19 16 10 8 5 5 7 5 2 1 7 3 2 2 1 1 2 4 5 5 5 8
9 6 4 8 8 12 13 13 13 14 11 11 12 11 17 17 18 14 11 18 19 20 18 15 11 12 11 9 11 9 5 4 8 8 6 3 2 3 6 7 10 12 13
Wind_Direction
215 214 212 210 209 216 217 223 225 217 214 214 213 212 210 220 236 238 247 259 268 235 234 230 160 69 306 275 265 256 269 307 293 235 217 177 167 190 238 191 173 195 184
221 218 217 214 214 218 222 224 232 240 224 231 230 230 234 239 239 239 249 256 243 241 221 224 242 244 252 273 271 277 277 292 257 271 275 206 188 208 216 205 178 196 157
226 225 219 211 211 216 222 224 228 230 231 232 230 244 245 243 239 240 244 238 238 242 239 236 230 226 244 246 284 293 288 253 250 253 287 206 198 233 233 219 206 209 191
226 227 223 217 207 207 212 217 225 222 225 231 236 239 238 235 236 237 248 241 228 234 240 244 235 220 241 259 276 275 275 255 250 248 248 255 252 239 230 229 224 224 199
267 263 219 222 214 215 218 218 226 234 235 235 241 235 253 247 242 238 238 238 237 237 243 238 235 249 242 256 265 279 269 266 263 254 252 261 263 237 229 241 237 230 209
276 255 219 203 218 227 220 223 227 222 224 234 239 236 239 246 241 240 242 233 227 228 231 241 248 247 255 257 259 266 284 258 250 251 255 255 245 219 238 252 243 228 217
205 219 238 242 217 214 213 212 212 197 209 206 221 236 248 255 249 227 222 221 232 237 237 232 239 249 254 252 251 251 252 260 265 260 257 255 245 244 244 248 246 239 242
195 220 225 221 228 234 230 217 228 213 205 231 259 257 253 239 241 227 223 232 249 247 242 240 229 241 249 259 276 272 265 271 261 264 266 260 256 256 251 251 254 250 247
207 231 227 223 221 216 224 224 226 232 231 241 279 252 251 246 244 249 251 246 256 255 244 220 192 211 247 246 263 265 270 267 256 270 279 277 279 275 270 265 252 247 236
201 235 238 209 207 212 215 216 224 228 221 237 243 251 258 257 251 254 235 238 241 236 224 227 247 268 263 268 265 256 253 257 267 277 274 268 265 272 280 276 264 247 235
159 151 161 178 188 204 197 195 216 219 229 215 202 218 233 251 244 231 210 218 230 236 253 265 281 291 284 265 266 264 245 259 259 246 260 254 227 224 256 271 267 252 236
122 127 135 149 152 157 160 160 158 163 162 144 135 133 98 52 276 240 236 233 238 248 262 278 296 301 289 272 288 250 248 239 232 232 238 232 239 259 298 302 301 282 252
130 130 132 135 137 137 142 143 144 136 123 122 119 92 89 74 55 62 96 166 226 247 252 257 279 279 217 134 136 138 172 211 234 247 256 263 46 30 35 20 29 11 326
133 136 141 144 138 131 127 126 128 128 127 124 121 112 86 67 65 65 77 88 101 107 103 111 101 100 116 122 124 128 130 132 133 125 107 93 86 83 83 90 86 76 70
145 140 134 133 127 130 140 138 129 128 118 112 113 77 63 40 57 70 89 92 93 89 90 95 96 96 97 97 105 105 104 104 104 100 97 100 97 85 79 74 56 37 26
125 126 129 126 120 118 137 136 129 126 117 109 63 103 32 20 58 82 97 99 91 86 85 86 90 91 91 92 93 96 95 91 92 95 104 107 92 82 83 89 94 95 85
128 127 123 115 119 119 126 112 127 132 116 111 116 130 124 99 103 104 109 104 98 93 89 84 83 84 84 84 82 88 93 95 95 101 106 109 108 101 96 98 113 89 98
121 118 115 112 114 116 104 89 83 74 86 109 117 112 117 120 121 121 122 120 113 105 97 93 88 79 65 60 76 96 109 114 117 120 115 111 106 112 93 68 79 60 7
132 131 127 125 121 127 125 99 81 79 71 97 89 108 119 134 137 137 141 152 133 100 94 93 116 51 10 21 82 109 120 126 129 120 107 88 88 79 89 73 14 346 310
134 135 129 168 164 154 166 163 104 118 107 97 86 85 112 140 162 160 166 172 149 81 33 0 231 283 324 120 146 157 155 151 109 25 0 340 316 263 268 291 308 318 17
175 204 163 137 148 166 190 214 225 222 197 186 171 128 102 96 146 142 156 181 224 288 304 350 344 332 300 278 226 205 185 186 196 317 302 299 305 269 253 163 97 88 69
201 202 214 185 189 186 188 210 237 255 267 267 261 240 220 217 215 208 192 209 244 332 17 353 331 309 284 215 215 218 223 219 310 323 300 276 216 140 126 119 100 75 54
183 201 208 215 206 198 202 231 234 245 267 282 273 249 241 235 236 231 227 234 237 250 238 11 5 331 270 242 209 226 240 286 299 265 167 135 141 150 145 134 110 58 66
213 210 204 216 223 223 229 225 239 245 257 261 260 227 235 236 227 220 223 231 238 242 234 230 206 245 274 250 229 264 240 172 155 149 148 149 140 157 158 181 259 247 325
224 234 242 239 225 226 234 241 253 266 263 256 259 265 237 219 220 221 230 249 232 237 233 227 224 246 249 217 211 222 139 198 157 158 101 68 68 224 265 251 248 266 282
194 207 247 246 242 225 240 262 276 271 278 290 277 260 223 222 226 220 262 253 232 226 226 230 255 276 241 242 246 241 246 225 241 247 252 289 330 284 269 275 286 282 276
Height
1554 1556 1559 1563 1567 1570 1571 1573 1575 1577 1577 1577 1577 1579 1580 1581 1581 1581 1581 1581 1580 1580 1580 1579 1579 1579 1578 1577 1576 1575 1575 1574 1574 1573 1572 1572 1573 1573 1572 1571 1571 1573 1572
1552 1552 1554 1558 1562 1565 1568 1571 1572 1573 1574 1575 1576 1576 1577 1578 1578 1579 1578 1578 1578 1577 1577 1576 1577 1578 1578 1577 1575 1574 1575 1574 1573 1571 1570 1571 1572 1571 1571 1571 1570 1572 1572
1550 1552 1554 1555 1558 1560 1563 1566 1568 1570 1571 1572 1572 1573 1574 1574 1574 1574 1574 1574 1574 1573 1573 1573 1575 1575 1576 1575 1574 1574 1574 1573 1573 1573 1571 1570 1571 1570 1570 1570 1570 1572 1572
1542 1548 1551 1553 1554 1556 1558 1561 1563 1564 1566 1567 1569 1570 1571 1569 1569 1570 1571 1571 1572 1572 1572 1572 1572 1572 1572 1573 1573 1574 1572 1572 1572 1571 1570 1570 1569 1570 1569 1570 1570 1569 1570
1533 1544 1547 1549 1550 1551 1553 1556 1558 1559 1561 1563 1565 1566 1565 1565 1566 1565 1566 1567 1568 1569 1570 1569 1569 1569 1569 1569 1570 1572 1571 1570 1570 1569 1569 1569 1568 1568 1569 1569 1569 1568 1568
1526 1538 1541 1542 1547 1547 1548 1550 1552 1555 1557 1559 1559 1559 1560 1561 1562 1562 1563 1564 1565 1566 1566 1566 1565 1564 1565 1566 1566 1566 1567 1567 1566 1567 1567 1567 1566 1566 1566 1566 1566 1565 1566
1529 1537 1539 1537 1542 1545 1546 1547 1548 1549 1548 1555 1556 1557 1557 1559 1559 1559 1561 1561 1562 1562 1563 1564 1563 1562 1563 1563 1564 1564 1564 1564 1563 1563 1563 1563 1564 1564 1564 1563 1563 1563 1563
1528 1531 1531 1534 1538 1540 1542 1543 1545 1545 1548 1550 1553 1556 1556 1557 1556 1558 1558 1559 1560 1560 1559 1560 1560 1560 1560 1560 1560 1560 1560 1560 1560 1561 1561 1561 1561 1561 1561 1561 1561 1561 1561
1527 1529 1530 1532 1535 1536 1538 1540 1542 1543 1545 1546 1548 1551 1552 1553 1553 1553 1555 1555 1557 1557 1557 1557 1557 1556 1557 1557 1556 1556 1556 1557 1558 1559 1559 1559 1558 1558 1558 1557 1557 1557 1556
1528 1527 1528 1531 1533 1533 1534 1537 1541 1542 1544 1545 1545 1547 1548 1549 1549 1549 1551 1551 1553 1554 1554 1555 1554 1554 1553 1552 1552 1552 1554 1554 1555 1557 1556 1555 1554 1554 1555 1555 1555 1553 1552
1526 1528 1529 1531 1533 1533 1534 1537 1539 1540 1543 1545 1544 1545 1547 1547 1546 1546 1548 1550 1551 1552 1552 1551 1551 1551 1550 1550 1549 1549 1551 1552 1552 1552 1553 1553 1552 1551 1552 1552 1552 1551 1550
1526 1528 1531 1531 1532 1535 1536 1537 1539 1541 1542 1544 1547 1547 1545 1545 1545 1544 1546 1548 1548 1548 1549 1549 1548 1548 1548 1548 1547 1548 1548 1548 1549 1550 1550 1550 1550 1549 1550 1549 1550 1549 1549
1527 1529 1533 1535 1534 1535 1537 1539 1541 1541 1542 1543 1544 1546 1545 1545 1545 1543 1543 1545 1545 1546 1545 1546 1547 1547 1546 1546 1546 1546 1547 1548 1548 1549 1551 1551 1550 1551 1550 1551 1549 1548 1549
1531 1532 1534 1535 1536 1535 1536 1537 1540 1542 1541 1544 1546 1545 1547 1545 1545 1544 1545 1545 1545 1545 1545 1546 1546 1546 1545 1546 1546 1546 1547 1548 1549 1550 1550 1550 1551 1551 1552 1553 1553 1552 1551
1533 1534 1539 1540 1539 1538 1538 1539 1537 1541 1544 1544 1548 1547 1546 1547 1545 1546 1548 1549 1549 1548 1546 1547 1548 1548 1548 1548 1548 1549 1550 1550 1550 1551 1552 1553 1553 1553 1554 1554 1555 1555 1554
1534 1535 1538 1541 1541 1542 1543 1541 1541 1543 1544 1546 1547 1546 1547 1549 1548 1550 1552 1553 1552 1552 1551 1551 1549 1550 1550 1551 1552 1551 1551 1553 1552 1553 1555 1554 1555 1556 1555 1555 1556 1557 1557
1536 1538 1540 1541 1542 1545 1546 1545 1545 1547 1546 1547 1549 1549 1549 1551 1551 1551 1554 1554 1554 1554 1554 1553 1554 1554 1553 1553 1554 1553 1551 1552 1553 1555 1556 1556 1556 1557 1557 1558 1559 1559 1558
1538 1540 1541 1543 1546 1547 1547 1548 1548 1547 1547 1548 1549 1550 1550 1551 1551 1553 1555 1556 1556 1555 1556 1555 1557 1557 1557 1554 1554 1554 1552 1552 1553 1556 1557 1557 1556 1557 1558 1559 1560 1560 1560
1540 1543 1543 1544 1546 1548 1548 1549 1549 1548 1551 1551 1551 1552 1552 1554 1554 1556 1558 1558 1558 1557 1558 1558 1558 1558 1558 1556 1555 1555 1555 1556 1557 1557 1558 1557 1557 1557 1557 1558 1559 1559 1560
1542 1543 1544 1545 1547 1547 1550 1551 1550 1552 1554 1555 1554 1555 1556 1556 1557 1558 1559 1559 1560 1558 1558 1558 1558 1558 1557 1556 1556 1556 1556 1558 1557 1558 1558 1557 1558 1558 1559 1559 1559 1558 1558
1542 1543 1545 1545 1547 1547 1549 1552 1555 1555 1555 1555 1556 1556 1556 1557 1557 1558 1559 1559 1559 1559 1559 1557 1556 1556 1556 1556 1557 1556 1556 1557 1558 1559 1558 1557 1558 1558 1558 1558 1558 1558 1558
1541 1542 1545 1545 1548 1548 1549 1552 1553 1555 1554 1552 1553 1554 1555 1557 1557 1560 1561 1560 1560 1560 1559 1556 1555 1555 1557 1556 1556 1555 1555 1557 1557 1557 1556 1557 1557 1557 1557 1558 1559 1559 1559
1540 1541 1543 1545 1546 1547 1548 1551 1552 1553 1553 1552 1551 1551 1552 1554 1557 1558 1559 1558 1558 1559 1559 1557 1556 1556 1556 1556 1554 1554 1554 1555 1555 1556 1556 1555 1556 1557 1558 1559 1559 1560 1559
1540 1541 1541 1542 1544 1546 1547 1549 1550 1551 1550 1549 1548 1548 1549 1552 1553 1554 1555 1557 1556 1556 1557 1556 1555 1555 1555 1554 1554 1554 1553 1554 1555 1555 1555 1556 1556 1556 1557 1558 1558 1559 1559
1536 1538 1539 1540 1541 1542 1544 1546 1547 1547 1546 1544 1545 1545 1546 1547 1550 1551 1551 1552 1551 1552 1553 1553 1553 1552 1551 1552 1553 1553 1553 1553 1553 1554 1555 1555 1556 1556 1556 1557 1557 1557 1557
1534 1535 1536 1537 1538 1540 1542 1542 1543 1542 1541 1540 1540 1541 1543 1545 1546 1546 1547 1547 1547 1548 1549 1549 1548 1549 1549 1551 1552 1552 1551 1552 1552 1552 1553 1553 1553 1554 1554 1555 1555 1555 1554